Flag for Canada Weather past 2 weeks in Saskatoon, Saskatchewan, Canada

Now
52 °F

Clear.


Feels Like: 48 °F
Forecast: 42 / 69 °F
Wind: 12 mph from South

Location: Saskatoon Weather Station

Current Time: Oct 21, 2014 at 2:11:25 AM

Latest Report: Oct 21, 2014 at 1:00 AM


Visibility: 15 mi

Pressure: 29.65 "Hg

Humidity: 67%

Dew point: 41 °F

Location of SaskatoonLocation

Historic Weather in Saskatoon — Graph

°F

Saskatoon temperature yesterday

Maximum temperature yesterday: 75 °F (at 4:00 PM)
Minimum temperature yesterday: 41 °F (at 7:00 AM)
Average temperature yesterday: 55 °F

Past Weeks' High & Low Weather Summary

 TemperatureHumidityPressure
High75 °F (Oct 20, 4:00 PM)100% (Oct 6, 12:53 AM)30.32 "Hg (Oct 6, 12:53 AM)
Low27 °F (Oct 7, 11:00 PM)25% (Oct 10, 5:00 PM)29.52 "Hg (Oct 11, 10:00 AM)
Average47 °F68%29.90 "Hg
* Reported Midnight between Oct 5 and Oct 6 — Midnight between Oct 20 and Oct 21, Saskatoon, Weather by CustomWeather, © 2014

Note: Actual official high and low records may vary slightly from our data, if they occured in-between our weather recording intervals... More about our weather records

Advertising

Saskatoon weather history for previous 24 hours

 ConditionsComfort  
Time TempWeatherWind HumidityBarometerVisibility
12:00 AM
Oct 21
52 °FClear.8 mph67%29.65 "Hg15 mi
11:00 PM
Oct 20
55 °FClear.12 mph59%29.65 "Hg15 mi
10:00 PM55 °FClear.10 mph59%29.66 "Hg15 mi
9:00 PM57 °FClear.12 mph55%29.67 "Hg15 mi
8:00 PM61 °FClear.12 mph52%29.67 "Hg15 mi
7:00 PM59 °FClear.9 mph55%29.69 "Hg15 mi
6:00 PM63 °FSunny.12 mph49%29.69 "Hg15 mi
5:00 PM72 °FSunny.13 mph36%29.68 "Hg15 mi
4:00 PM75 °FSunny.14 mph27%29.69 "Hg15 mi
3:00 PM73 °FSunny.13 mph31%29.70 "Hg15 mi
2:00 PM72 °FPassing clouds.10 mph33%29.71 "Hg15 mi
1:00 PM66 °FScattered clouds.10 mph43%29.73 "Hg15 mi
12:00 PM63 °FScattered clouds.10 mph49%29.76 "Hg15 mi
11:00 AM57 °FScattered clouds.13 mph55%29.78 "Hg15 mi
10:00 AM54 °FScattered clouds.9 mph63%29.79 "Hg15 mi
9:00 AM48 °FScattered clouds.12 mph76%29.79 "Hg15 mi
8:00 AM43 °FScattered clouds.7 mph87%29.80 "Hg15 mi
7:00 AM41 °FPassing clouds.9 mph87%29.80 "Hg15 mi
6:00 AM43 °FClear.7 mph87%29.81 "Hg15 mi
5:00 AM43 °FClear.9 mph87%29.81 "Hg15 mi
4:00 AM43 °FClear.9 mph87%29.83 "Hg15 mi
3:00 AM45 °FClear.9 mph81%29.83 "Hg15 mi
2:00 AM45 °FClear.10 mph81%29.85 "Hg15 mi
Weather by CustomWeather, © 2014

See weather overviewHow to use our weather pages